Vorticity
5 2 4 1 8 5 4 7 6 3 2 4 6 4 8 9 9 4 0 9 18 17 22 21 20 14 14 11 6 6 -2 0 3 3 3 6 5 6 3 6 6 3 2 7 4
2 3 6 1 6 3 5 2 4 1 4 7 2 2 6 13 8 8 12 23 28 28 31 31 30 22 17 11 6 2 -1 3 2 4 3 6 6 5 5 4 6 4 9 5 6
6 5 6 4 7 4 1 6 7 2 6 6 6 6 6 8 11 20 31 31 25 22 18 24 25 28 22 11 7 8 -4 7 4 4 6 5 3 6 8 4 3 6 7 9 6
4 6 3 4 6 4 4 1 2 6 2 -0 4 6 6 9 20 35 37 29 28 26 26 25 23 24 26 16 11 15 -1 7 3 4 2 4 3 5 5 10 3 6 6 8 9
3 4 1 4 5 1 2 5 -1 4 3 4 8 6 9 16 30 37 35 43 40 43 41 39 26 23 21 16 14 28 16 1 6 3 0 4 6 4 5 4 7 -0 5 8 6
6 6 7 7 6 0 1 1 4 3 4 6 8 6 11 25 36 32 37 25 15 17 22 31 43 25 20 16 17 16 29 17 3 3 3 2 3 4 6 4 7 5 3 4 6
3 11 10 4 7 2 2 1 3 2 5 6 6 8 12 13 36 39 24 15 16 24 23 21 27 38 28 16 16 18 18 32 12 8 5 4 3 5 2 7 4 4 7 4 6
7 8 8 5 6 3 1 0 3 3 5 4 6 11 12 22 37 33 19 7 5 13 30 29 28 26 34 28 15 17 21 16 16 13 15 13 10 4 -1 10 6 2 8 6 4
5 9 7 3 4 1 0 2 3 3 4 6 6 9 15 30 37 30 14 2 10 14 26 29 38 26 29 33 28 20 23 17 18 19 15 18 5 10 31 3 4 6 6 10 6
5 9 3 4 4 5 5 4 4 3 6 5 7 10 10 23 37 28 26 16 9 8 6 24 26 20 32 36 44 33 29 28 20 13 13 25 14 3 -2 27 11 4 5 5 13
7 4 3 6 5 8 6 3 6 5 6 4 10 3 12 26 30 19 16 23 12 -2 11 15 37 2 -1 7 31 20 24 19 17 17 17 22 22 1 2 -12 11 28 1 -1 11
4 11 2 9 6 8 6 4 6 8 8 5 12 7 10 13 37 28 9 14 16 10 17 10 14 23 24 21 8 18 22 26 16 32 30 24 28 23 10 7 9 1 19 9 11
7 11 3 7 4 -1 0 6 7 9 9 10 8 9 8 16 22 28 11 17 10 15 9 21 19 13 29 22 24 28 30 25 -3 30 11 20 17 26 30 11 -20 27 12 -1 -1
15 6 9 5 5 5 6 5 8 10 12 8 5 5 8 18 18 38 15 16 9 18 11 23 31 30 26 25 25 27 27 22 9 13 9 37 30 35 16 18 5 2 8 8 40
12 3 7 6 3 5 3 4 6 10 14 6 7 6 3 13 16 30 19 12 21 27 17 24 19 6 14 31 29 34 23 23 2 10 3 17 29 25 -10 42 26 5 11 20 -3
5 3 1 6 5 5 4 5 3 7 11 10 6 6 9 9 14 26 22 15 24 27 16 -6 3 -6 17 14 -2 14 34 49 7 -9 21 -0 35 30 6 3 40 7 -8 0 48
5 4 5 6 6 3 5 2 3 7 9 6 5 6 9 4 5 17 34 24 6 17 17 11 14 5 13 19 28 21 37 67 7 -20 -24 8 21 36 36 14 -5 23 21 1 6
6 5 9 6 3 3 5 2 6 2 6 14 10 8 7 10 5 7 18 32 27 6 1 27 4 -5 7 11 21 8 -5 20 46 23 -28 -19 -20 -12 38 21 39 -25 -1 -10 13
7 6 12 6 4 4 4 -1 8 5 3 9 11 13 7 7 7 5 13 21 23 14 14 11 34 16 6 5 7 8 28 23 19 50 18 22 31 30 1 33 29 52 1 6 -10
9 7 3 5 7 4 2 3 6 6 4 3 10 15 10 9 9 6 8 18 17 24 8 10 11 8 17 6 14 2 22 17 8 -9 6 18 -19 42 -22 6 -1 20 51 7 6
7 7 1 6 5 5 2 5 3 7 5 3 5 14 10 10 7 6 6 7 20 18 30 14 14 23 4 20 20 15 5 41 42 10 -11 11 34 15 -4 26 48 5 12 39 33
7 6 5 6 3 7 5 4 4 3 6 3 2 5 14 13 8 6 8 8 8 11 20 34 15 9 20 10 9 22 13 -3 37 22 6 -11 27 21 4 1 13 11 16 31 30
7 6 5 9 5 4 4 5 6 4 5 6 3 3 7 15 12 12 5 6 7 6 10 21 28 22 9 11 2 6 21 19 1 1 12 14 16 27 4 -0 19 19 8 12 20
12 5 6 5 7 2 3 4 7 6 3 7 4 2 3 7 16 10 8 3 4 6 6 10 22 29 27 12 12 6 6 7 16 10 -1 4 4 16 29 -1 -21 -1 -2 17 20
10 7 9 7 6 3 3 4 10 9 4 5 5 4 2 4 12 18 14 9 3 4 6 4 9 14 28 31 25 14 7 2 4 25 15 8 13 15 24 33 42 -32 9 10 3
6 9 6 5 4 2 1 10 10 10 7 5 7 6 4 3 4 13 21 15 12 4 3 6 4 5 10 18 25 23 28 16 8 1 12 3 10 23 16 18 21 52 -2 5 15
7 8 5 5 1 5 10 7 11 10 10 7 5 9 7 4 5 4 10 16 15 9 5 5 6 3 5 8 14 24 27 21 23 6 4 5 4 4 19 25 13 2 30 20 -5
Height
5785 5781 5777 5773 5768 5763 5758 5753 5747 5740 5732 5724 5713 5703 5692 5681 5671 5669 5654 5641 5632 5627 5626 5630 5632 5634 5640 5649 5649 5651 5653 5669 5685 5691 5699 5710 5714 5724 5726 5733 5736 5745 5746 5753 5756
5783 5779 5775 5770 5765 5760 5753 5747 5740 5731 5721 5714 5708 5699 5686 5671 5655 5639 5622 5607 5595 5589 5588 5590 5599 5603 5611 5620 5624 5623 5633 5660 5669 5675 5680 5692 5698 5708 5711 5721 5725 5733 5732 5745 5744
5782 5777 5772 5767 5762 5755 5749 5742 5734 5727 5721 5710 5698 5684 5668 5652 5628 5604 5578 5570 5560 5555 5558 5560 5564 5573 5579 5589 5597 5602 5615 5642 5648 5654 5660 5671 5679 5690 5696 5707 5716 5723 5726 5737 5741
5780 5775 5770 5765 5759 5752 5746 5739 5732 5725 5713 5701 5687 5671 5654 5634 5615 5583 5553 5535 5532 5529 5529 5532 5538 5545 5553 5559 5569 5575 5599 5613 5627 5635 5642 5654 5668 5676 5680 5693 5706 5714 5716 5727 5735
5778 5773 5768 5762 5756 5750 5743 5736 5728 5717 5705 5691 5675 5659 5638 5613 5586 5558 5540 5523 5511 5508 5506 5508 5512 5518 5527 5534 5541 5547 5572 5587 5599 5611 5619 5635 5648 5661 5670 5677 5692 5703 5702 5718 5725
5776 5771 5766 5759 5753 5747 5740 5732 5722 5710 5695 5680 5663 5641 5621 5596 5561 5537 5522 5516 5506 5500 5494 5491 5493 5495 5504 5511 5519 5533 5544 5559 5573 5591 5602 5615 5627 5642 5660 5665 5677 5691 5694 5706 5715
5774 5768 5763 5758 5751 5744 5736 5728 5716 5703 5688 5672 5654 5630 5604 5578 5548 5529 5515 5508 5502 5493 5488 5480 5480 5480 5490 5495 5504 5515 5529 5538 5552 5566 5582 5594 5607 5626 5644 5649 5661 5680 5687 5699 5707
5772 5766 5761 5755 5749 5742 5733 5723 5711 5697 5682 5666 5646 5624 5593 5563 5542 5524 5515 5506 5498 5490 5481 5474 5470 5470 5472 5479 5488 5501 5512 5526 5541 5552 5564 5575 5591 5611 5627 5637 5651 5666 5675 5686 5698
5769 5764 5759 5753 5746 5738 5729 5719 5706 5691 5678 5661 5641 5615 5587 5560 5541 5524 5514 5507 5498 5490 5480 5471 5466 5465 5468 5472 5478 5488 5505 5515 5533 5538 5551 5559 5575 5595 5608 5623 5636 5650 5665 5677 5689
5767 5762 5756 5750 5743 5735 5726 5715 5701 5687 5671 5654 5637 5616 5596 5565 5534 5522 5511 5505 5497 5489 5481 5472 5467 5466 5466 5467 5473 5483 5493 5502 5515 5525 5536 5549 5563 5585 5598 5610 5625 5638 5651 5664 5677
5765 5760 5754 5748 5740 5732 5722 5712 5699 5687 5669 5651 5626 5600 5575 5556 5534 5523 5515 5506 5497 5489 5482 5475 5471 5468 5467 5469 5469 5474 5480 5491 5505 5516 5524 5536 5549 5573 5590 5602 5611 5625 5638 5651 5664
5763 5758 5752 5745 5737 5728 5719 5708 5695 5684 5664 5645 5623 5603 5579 5560 5544 5530 5518 5509 5498 5490 5481 5476 5471 5468 5465 5465 5467 5471 5478 5492 5503 5513 5519 5529 5542 5564 5578 5593 5603 5616 5627 5640 5655
5761 5755 5750 5743 5734 5726 5716 5704 5691 5677 5658 5641 5624 5609 5589 5562 5543 5526 5517 5505 5497 5490 5483 5476 5471 5466 5464 5463 5465 5469 5476 5489 5503 5507 5515 5524 5536 5552 5569 5581 5595 5607 5620 5627 5642
5757 5753 5748 5741 5734 5723 5713 5701 5689 5674 5657 5643 5626 5606 5592 5563 5548 5527 5515 5508 5501 5492 5486 5478 5471 5467 5465 5464 5465 5468 5474 5485 5498 5506 5516 5520 5533 5546 5560 5573 5588 5603 5610 5619 5626
5755 5751 5745 5737 5729 5722 5713 5699 5688 5671 5657 5643 5627 5607 5590 5568 5552 5538 5524 5517 5506 5497 5491 5486 5479 5476 5473 5471 5470 5472 5476 5486 5497 5507 5513 5519 5530 5541 5554 5565 5568 5585 5593 5604 5613
5754 5749 5743 5736 5728 5720 5710 5700 5689 5674 5658 5643 5629 5616 5596 5576 5561 5542 5531 5527 5514 5506 5497 5493 5487 5486 5482 5480 5478 5478 5480 5487 5498 5505 5515 5521 5527 5533 5541 5551 5560 5578 5591 5597 5605
5752 5748 5741 5734 5727 5719 5708 5701 5687 5672 5661 5648 5634 5619 5601 5585 5571 5555 5542 5531 5521 5515 5507 5500 5495 5493 5489 5485 5482 5481 5482 5488 5500 5504 5512 5520 5525 5529 5536 5548 5556 5570 5579 5589 5599
5751 5746 5740 5733 5725 5717 5707 5700 5686 5675 5661 5648 5636 5619 5606 5593 5578 5562 5550 5539 5528 5520 5514 5507 5503 5499 5495 5494 5491 5491 5493 5495 5501 5508 5515 5519 5524 5531 5534 5538 5550 5559 5569 5580 5590
5750 5745 5739 5731 5724 5716 5708 5701 5686 5676 5665 5652 5638 5623 5612 5599 5584 5571 5553 5542 5532 5526 5521 5515 5508 5505 5502 5501 5501 5499 5499 5502 5504 5509 5518 5523 5525 5529 5534 5536 5543 5553 5564 5572 5585
5748 5744 5738 5731 5723 5715 5710 5699 5688 5677 5667 5655 5641 5627 5615 5604 5593 5578 5563 5550 5540 5531 5526 5520 5517 5512 5508 5507 5506 5505 5505 5505 5509 5511 5517 5519 5524 5527 5531 5534 5542 5547 5554 5564 5575
5747 5743 5737 5730 5723 5717 5708 5697 5689 5679 5669 5658 5645 5632 5618 5606 5595 5584 5573 5562 5550 5541 5533 5527 5524 5521 5516 5512 5510 5510 5510 5510 5511 5515 5519 5522 5525 5528 5531 5535 5538 5544 5548 5554 5563
5746 5742 5736 5730 5725 5715 5706 5698 5690 5680 5670 5661 5649 5637 5623 5612 5601 5589 5580 5569 5559 5549 5540 5533 5529 5526 5522 5518 5516 5515 5514 5516 5516 5519 5520 5521 5525 5527 5530 5533 5536 5540 5544 5548 5552
5745 5739 5734 5728 5721 5714 5706 5698 5689 5680 5671 5661 5651 5640 5629 5618 5607 5595 5586 5578 5567 5558 5549 5541 5534 5531 5527 5525 5521 5521 5519 5519 5519 5521 5521 5521 5523 5524 5527 5529 5531 5535 5539 5543 5546
5744 5739 5733 5725 5719 5712 5705 5698 5690 5681 5673 5663 5653 5644 5633 5622 5611 5601 5592 5584 5575 5565 5556 5548 5539 5533 5530 5527 5526 5524 5522 5521 5520 5521 5521 5521 5520 5521 5522 5524 5528 5531 5534 5536 5540
5740 5735 5729 5723 5717 5711 5704 5697 5689 5682 5673 5664 5655 5646 5637 5626 5616 5605 5596 5587 5580 5571 5563 5555 5547 5539 5534 5530 5527 5525 5523 5522 5521 5519 5520 5520 5520 5519 5520 5521 5521 5524 5528 5530 5533
5739 5734 5728 5722 5715 5709 5703 5696 5688 5681 5673 5665 5656 5647 5638 5629 5619 5610 5601 5593 5585 5576 5569 5561 5554 5547 5541 5534 5527 5523 5521 5519 5518 5517 5517 5517 5516 5515 5514 5513 5514 5517 5523 5523 5526
5736 5732 5726 5720 5714 5708 5702 5694 5687 5679 5673 5665 5657 5649 5640 5632 5623 5613 5604 5595 5587 5580 5573 5565 5559 5551 5544 5537 5532 5528 5520 5517 5515 5514 5513 5512 5511 5509 5508 5507 5508 5512 5515 5518 5519